GFSNIL_con_mlcape_003.txt.gz
CAPE
263 0 0 0 0 0 0 0 0 0 0 0 0 0 0 0 0 0 0 0 0 0
0 0 0 0 0 0 0 0 0 0 0 0 0 0 0 0 0 0 0 0 0 29
0 0 0 1 5 0 0 0 0 0 0 0 0 0 0 0 0 0 0 3 8 43
0 0 0 6 7 3 0 0 0 0 0 0 0 0 0 0 0 0 28 35 43 22
0 0 0 0 0 0 0 0 0 0 0 0 0 0 0 0 0 0 0 32 28 17
1 43 44 18 1 0 0 0 0 0 0 0 0 0 0 0 0 2 35 39 45 29
36 37 233 189 48 5 4 0 0 0 0 0 0 0 0 0 1 38 60 45 48 18
154 28 345 319 64 4 0 6 0 0 0 0 0 0 0 8 58 54 26 19 10 0
250 20 326 152 0 0 0 2 5 6 0 0 0 2 6 33 38 36 5 0 0 0
516 67 163 35 15 4 1 5 3 22 28 0 0 0 3 22 9 23 8 0 0 0
463 241 208 56 113 76 90 45 48 28 51 53 26 8 22 31 32 20 2 0 0 0
368 357 193 221 140 185 187 177 207 150 139 163 35 30 69 26 29 0 0 0 0 0
266 307 197 302 194 309 276 236 300 298 191 84 108 131 9 0 0 0 0 0 0 0
352 283 240 188 57 4 87 254 428 422 367 244 117 14 29 0 0 0 0 0 0 0

GFSNIL_con_mlcape_006.txt.gz
CAPE
1418 888 562 29 19 39 0 0 0 0 0 0 0 0 0 0 0 0 0 0 0 0
1291 951 552 0 0 0 0 0 0 0 0 0 0 0 0 0 0 0 0 0 0 0
1014 861 34 0 0 0 0 0 0 0 0 0 0 0 0 0 0 0 0 0 0 0
726 312 0 0 0 0 0 0 0 0 0 0 0 0 0 0 0 0 0 0 18 19
423 87 0 0 0 0 0 0 0 0 0 0 0 0 0 0 0 0 0 0 30 42
352 120 11 0 0 0 0 0 0 0 0 0 0 0 0 0 0 0 0 7 29 24
508 282 45 0 0 0 0 0 0 0 0 0 0 0 0 0 0 0 0 15 25 5
626 285 24 0 11 0 0 0 0 0 0 0 0 0 0 0 0 0 10 17 6 0
470 353 233 26 1 7 21 7 2 0 0 0 0 0 0 0 0 2 12 0 0 0
447 215 19 0 11 196 177 61 1 0 0 0 1 0 3 5 4 2 5 0 0 0
419 215 65 0 0 123 109 2 5 12 27 2 33 46 19 42 27 8 0 0 0 0
583 332 152 32 1 3 23 28 48 59 70 64 93 113 90 18 40 7 0 0 0 0
802 428 86 2 0 0 8 23 68 91 25 55 66 108 8 19 11 6 0 0 0 0
767 622 87 1 1 0 26 36 45 0 1 12 4 27 23 0 5 1 0 0 0 0

GFSNIL_con_mlcape_009.txt.gz
CAPE
1601 1827 1581 982 625 272 435 347 0 0 0 86 5 0 0 18 32 33 0 63 83 28
1652 1738 1450 995 733 259 310 114 24 0 16 6 0 0 3 0 0 10 48 71 145 72
1721 1643 1637 1168 698 25 162 19 17 1 4 0 0 0 0 0 0 0 0 12 109 108
1642 1443 1416 1214 683 2 59 39 7 0 0 0 0 0 0 0 0 0 0 110 34 96
1269 1037 713 732 318 4 0 12 1 0 0 0 0 0 0 0 0 0 1 36 107 105
865 735 914 579 182 0 0 8 9 25 1 0 1 22 83 7 0 5 22 31 51 98
806 787 577 481 135 6 11 52 60 18 6 13 25 21 0 0 0 0 7 31 98 155
884 766 804 254 18 0 0 20 8 0 0 0 2 0 0 0 3 39 49 33 146 153
1177 748 475 106 10 0 0 0 0 0 6 11 9 0 0 0 60 171 194 70 143 98
1239 809 432 116 15 0 0 0 0 0 2 19 46 0 0 0 30 134 134 142 129 60
1204 811 468 216 68 0 0 0 0 6 4 72 110 21 8 0 73 148 197 167 123 78
1271 861 603 390 84 42 0 0 3 69 34 67 87 12 6 33 77 87 91 198 79 19
1222 1037 697 421 122 72 2 0 28 11 97 158 215 43 59 21 55 60 60 76 9 0
1173 1066 877 352 109 41 1 0 5 71 199 134 99 134 32 14 49 38 27 39 8 0

GFSNIL_con_mlcape_012.txt.gz
CAPE
2560 2323 1985 1861 460 247 85 98 227 744 112 86 207 270 1 2 7 25 21 27 28 5
2533 2382 1624 1447 1565 696 246 119 368 303 137 64 275 32 1 0 31 18 29 14 21 14
2217 2440 2202 2123 1737 779 505 346 324 310 26 101 73 12 34 0 7 10 0 0 1 5
1929 2082 2399 2299 2082 1596 994 576 457 432 92 174 24 22 56 20 0 1 0 0 5 69
1949 1992 2089 2539 2178 1835 1049 380 571 428 216 160 66 21 66 6 0 0 0 0 26 92
1813 2016 2024 2244 2077 1300 750 314 176 114 85 177 134 61 47 62 30 8 0 3 62 89
1921 1919 1978 2160 1873 805 381 24 0 27 33 67 142 97 74 107 86 5 0 42 143 172
2347 2232 1932 1945 1430 639 269 1 0 1 0 1 67 25 136 110 10 6 42 119 192 229
2621 2545 2017 1924 1195 412 129 0 0 0 0 0 0 0 3 3 27 36 129 237 291 309
2666 2560 2030 1934 1178 551 255 6 0 0 0 0 0 0 0 0 6 35 146 310 530 396
2583 2364 1920 1583 1200 860 427 5 0 0 0 0 0 0 0 0 0 68 280 523 593 320
2407 2262 1980 1393 862 704 461 23 0 0 21 7 8 20 32 43 77 134 455 633 303 279
2463 2296 1937 1608 1069 621 269 95 5 44 43 189 126 28 65 44 136 271 205 139 309 72
2620 2315 1807 1509 1101 596 268 160 213 250 311 53 18 45 16 10 95 200 112 245 141 92

GFSNIL_con_mlcape_018.txt.gz
CAPE
2189 2821 1798 1771 1463 968 566 723 915 911 951 489 206 428 452 392 68 138 47 7 3 0
2474 2554 2580 1753 1743 1175 608 1231 1057 960 1278 536 670 399 520 152 108 199 212 165 30 2
3147 2447 2279 2039 1809 1207 1330 482 1234 1288 1112 611 251 589 424 88 256 210 109 165 65 115
3213 3225 2564 2948 2154 2190 1416 806 1266 1370 1045 576 405 538 339 121 125 116 143 96 50 8
3296 3313 3326 2610 3105 2601 2120 1818 843 1179 866 625 375 515 291 39 116 111 141 153 84 47
2875 3105 3031 3365 2764 3193 2597 1844 1188 1385 907 523 348 441 171 152 0 18 4 36 39 8
2733 2785 2781 3009 3391 3059 3063 2452 1775 1321 1152 689 498 369 179 205 103 137 79 130 40 48
2662 2795 2826 2850 3177 3243 3298 3078 2438 1448 1386 866 602 447 214 191 134 153 154 183 96 74
2481 2804 2759 3021 2881 3411 3269 3315 2683 1960 1316 1131 669 289 204 154 242 259 199 180 179 106
2229 2630 2907 2921 3110 3063 3323 3368 2870 2082 1445 1204 719 199 50 33 96 359 468 480 248 59
2344 2736 3039 3072 3073 3250 3398 3442 3068 2243 1420 1043 651 109 0 0 2 161 220 140 5 0
3215 3446 3504 3403 3496 3537 3570 3487 2611 1820 1246 928 514 61 0 0 0 0 0 0 0 7
3974 4504 4266 4296 4048 3906 3420 2778 1965 1457 1059 701 445 102 51 0 0 0 0 3 9 37
4016 4088 4368 4416 3817 3052 2426 2048 1646 1223 804 587 389 244 16 0 44 24 77 26 16 108

GFSNIL_con_mlcape_021.txt.gz
CAPE
1545 1688 1186 1286 1014 776 749 670 787 732 467 339 0 483 212 167 83 61 8 1 24 0
1668 1978 2062 1401 1729 834 254 469 698 813 485 305 49 129 338 191 38 151 44 5 8 0
1914 1744 2043 2214 1301 1577 710 989 791 781 614 418 143 27 359 235 101 55 160 66 28 18
2395 2208 1893 2193 1867 1348 1342 596 803 890 737 487 367 194 294 271 55 124 40 178 38 69
2590 2637 2133 1758 2114 1638 1272 1274 952 882 857 621 292 256 381 276 93 54 245 25 72 29
2428 2690 2443 2006 1910 2282 1652 1458 1212 1093 844 696 495 245 285 265 156 96 159 166 99 3
2691 2585 2623 2766 2165 2158 2690 1906 1386 1106 871 665 497 395 343 299 227 33 113 139 268 129
2697 2802 2840 2830 3046 2445 2472 2578 1915 1351 936 708 447 434 348 272 234 27 0 83 155 60
2574 2731 2708 2819 2813 3142 2618 2717 2370 1746 1327 1006 692 505 421 342 275 151 69 14 108 114
2530 2573 2618 2674 2760 2952 3106 3006 2911 2394 1711 1355 1034 692 462 401 298 238 113 75 138 320
2391 2410 2579 2723 2846 2834 3126 3123 3149 2880 2239 1704 1223 855 484 358 260 202 121 256 494 345
2130 2324 2482 2708 2774 2980 2960 3194 3275 2980 2455 1982 1297 764 422 194 103 41 38 201 223 2
1939 2184 2500 2777 2891 3025 3172 3302 3224 2813 2346 1843 1303 556 264 30 2 0 0 28 8 0
2249 2444 2830 2955 3108 3337 3261 3003 2808 2463 1768 1391 1023 566 284 33 7 3 0 0 0 1

GFSNIL_con_mlcape_024.txt.gz
CAPE
1071 945 734 1011 985 1029 965 973 705 1065 768 482 108 36 22 6 8 2 1 15 4 1
1264 1123 1085 1184 1124 1192 1026 740 794 840 685 368 117 54 56 48 31 22 1 0 10 4
1126 1398 1420 1438 1337 1078 802 709 622 638 429 264 147 111 100 89 59 16 10 4 8 2
1383 1190 1388 1464 1598 1209 866 615 487 526 405 289 204 83 90 71 148 81 0 72 40 8
1666 1616 1372 1292 1618 1727 1333 671 447 503 585 454 292 183 21 42 129 125 0 0 97 88
2011 1915 1576 1270 1440 1693 1767 1152 861 669 640 583 420 362 195 81 28 77 28 32 17 17
2061 2177 1963 1695 1495 1562 1759 1544 1206 1005 843 659 464 366 428 289 96 109 102 1 80 97
1943 2176 2339 2111 1933 1737 1866 1780 1478 1252 1085 848 623 463 376 357 190 107 159 80 73 132
2296 2225 2255 2370 2325 2083 1849 2097 1723 1484 1311 1031 752 600 491 448 289 177 165 108 38 53
2501 2473 2448 2442 2496 2540 2259 2048 2014 1780 1645 1334 1049 718 541 447 320 286 243 197 23 0
2544 2464 2561 2611 2565 2567 2747 2452 2302 1997 1782 1727 1472 1063 651 517 372 312 310 244 149 0
2508 2431 2517 2497 2517 2591 2733 2821 2699 2577 2184 1952 1764 1432 965 575 426 369 347 320 284 81
2428 2400 2348 2463 2472 2577 2644 2790 2844 2820 2465 2287 2300 1482 1079 856 570 433 316 193 144 92
2350 2335 2332 2396 2541 2575 2621 2745 2813 2687 2359 2207 2105 1495 880 614 496 449 224 56 5 6

GFSNIL_con_mlcape_027.txt.gz
CAPE
902 771 700 678 725 488 816 1044 1083 1048 994 608 202 80 0 0 0 0 0 0 0 1
871 832 740 778 734 424 734 997 880 1115 948 666 202 90 28 0 0 0 0 0 0 0
832 872 879 801 774 641 810 917 761 995 800 607 376 117 74 30 0 8 0 0 0 0
932 993 945 896 816 714 960 852 852 854 634 585 460 202 102 38 2 3 0 0 0 0
877 1058 1118 1036 978 848 1047 814 799 755 632 471 375 162 146 86 9 0 0 0 0 0
962 935 957 1129 1282 1094 1140 1042 741 709 643 444 291 220 162 157 102 2 8 0 0 0
1161 1151 1091 1063 1163 1238 1131 1070 1009 774 733 501 312 266 252 194 138 46 41 27 6 0
1307 1316 1344 1273 1248 1254 1280 1158 1148 1130 822 556 489 453 393 324 268 177 100 42 60 29
1562 1570 1573 1571 1474 1373 1312 1325 1090 1137 1228 1017 788 555 406 471 434 299 253 169 98 93
1603 1632 1802 1933 1832 1649 1534 1511 1242 1097 1110 1084 1077 843 679 486 479 437 356 199 175 116
1835 1733 1763 1880 1977 1953 1775 1654 1746 1416 1208 1171 1195 1089 805 688 503 421 278 330 297 268
2062 1977 1976 1912 1930 2080 2118 1894 1799 1664 1397 1283 1248 1072 986 868 642 495 411 333 262 225
2155 2142 2104 2053 2088 2168 2238 2289 2092 1957 1704 1568 1568 1292 1167 933 825 944 805 566 494 333
2315 2280 2200 2210 2211 2261 2278 2392 2470 2258 2139 1876 1913 1663 1309 1063 1284 1276 957 745 556 252

GFSNIL_con_mlcape_030.txt.gz
CAPE
454 455 437 427 439 451 362 479 729 927 1043 922 564 265 124 67 1 0 0 0 0 0
444 499 483 474 518 518 564 635 543 786 1054 972 684 347 102 43 0 0 0 0 0 0
507 585 578 514 568 589 604 740 546 918 955 932 723 463 149 59 16 3 0 0 0 0
627 677 650 566 610 640 670 745 481 805 920 852 818 493 283 116 54 13 0 0 0 0
704 728 682 617 661 681 714 689 552 654 895 816 808 598 475 325 123 52 0 0 0 0
821 747 731 702 743 744 771 714 621 836 843 877 762 561 521 453 258 113 7 0 0 0
867 831 810 856 854 796 836 760 613 755 870 879 748 574 476 429 375 229 114 28 0 0
795 817 832 897 995 1032 989 901 779 622 905 890 806 653 537 372 363 353 288 197 61 10
937 902 879 871 866 975 1076 1133 943 804 787 967 862 746 573 479 378 335 408 408 226 62
1058 1104 1116 1137 1069 986 1020 1125 1115 1034 854 791 993 745 618 557 509 509 473 501 393 224
1285 1254 1334 1358 1278 1204 1165 1135 1240 1194 1148 1002 1014 836 766 713 734 696 608 510 466 485
1479 1473 1517 1520 1517 1530 1411 1306 1317 1313 1242 1242 1202 833 806 727 732 700 739 554 452 514
1552 1503 1484 1570 1706 1816 1794 1676 1580 1586 1479 1344 1408 957 753 704 872 831 811 694 573 447
1782 1721 1607 1652 1716 1801 1983 1999 1845 1772 1726 1510 1515 1384 851 657 903 958 1033 1006 869 527

GFSNIL_con_mlcape_033.txt.gz
CAPE
858 918 919 948 842 960 927 1034 1535 1575 1584 1588 1571 1381 967 791 588 252 139 3 7 57
859 887 881 951 1040 924 1084 1017 1319 1532 1538 1565 1583 1286 988 730 529 236 119 46 28 35
742 858 925 1060 998 991 1102 1090 1096 1193 1369 1433 1602 1407 1039 694 495 252 112 73 69 29
796 909 989 1030 1054 1088 1159 1142 1264 1304 1329 1341 1570 1440 1183 924 578 349 220 107 77 53
892 967 998 1031 1075 1162 1129 1193 1341 1367 1437 1444 1546 1368 1276 1152 710 569 410 279 97 40
1002 1080 1118 1179 1227 1234 1224 1271 1317 1403 1368 1356 1516 1435 1241 1353 1028 749 608 425 179 74
1121 1187 1247 1350 1321 1249 1295 1299 1287 1338 1386 1337 1382 1468 1319 1337 1247 995 843 630 397 224
1253 1410 1402 1394 1418 1382 1374 1276 1343 1316 1408 1409 1442 1444 1320 1398 1297 1104 950 784 545 390
1397 1504 1438 1415 1413 1409 1376 1397 1403 1354 1358 1372 1270 1193 956 1306 1267 1204 1030 892 782 632
1283 1500 1524 1561 1564 1544 1503 1483 1420 1306 1364 1364 1380 870 736 779 1325 1253 1173 1055 982 905
1256 1391 1483 1499 1460 1610 1684 1648 1592 1455 1404 1414 1493 967 570 698 1109 1351 1318 1160 1105 1084
1089 1175 1452 1486 1501 1587 1596 1675 1765 1835 1698 1533 1577 1023 701 570 977 1323 1311 1238 1159 1180
1374 1444 1516 1661 1778 1866 1818 1732 1792 1815 1836 1720 1660 1169 712 700 1065 1190 1372 1364 1229 841
1736 1745 1821 1950 2046 2164 2122 2102 1942 1946 1963 1858 1717 1835 838 653 1248 1395 1301 1328 1266 1235

GFSNIL_con_mlcape_036.txt.gz
CAPE
2117 1571 1493 1585 1382 1387 1035 998 1057 1533 1849 2151 2166 2401 2421 2087 1621 1213 1204 666 30 15
2112 1871 1379 1438 1878 1531 1561 1225 1323 1478 2093 2149 2097 2408 2364 1851 1544 999 1236 666 260 19
1981 2150 1975 2002 1907 1772 1666 1689 1338 1672 1935 2070 2113 2353 2324 1825 1618 1231 939 339 99 99
1834 1935 2104 2047 2101 2126 1907 2046 1900 1860 1872 1765 1938 2225 2371 1992 1570 1405 1109 458 147 370
1826 1877 1832 2062 2108 2312 2094 2168 2173 2120 2093 1965 1819 2094 2409 2176 1559 1571 1305 972 525 347
1702 1772 1861 2167 2131 2229 2291 2361 2013 2241 2366 2140 1917 2036 2383 2215 2003 1772 1594 1237 970 631
1885 1826 1937 2137 2232 2312 2383 2396 2261 2358 2520 2374 2134 1945 2022 2214 2042 2044 1821 1629 1259 908
2038 2199 2131 2152 2301 2392 2477 2442 2466 2445 2502 2610 2206 1738 2013 2202 1997 2156 2137 1828 1560 1184
2149 2340 2293 2342 2452 2504 2492 2515 2568 2547 2599 2435 2241 1618 1270 2089 2032 2186 2276 2174 1806 1558
2254 2419 2514 2564 2592 2576 2545 2573 2565 2556 2614 2509 2521 1696 1114 1189 1837 2118 2350 2412 2051 1794
2212 2419 2656 2709 2568 2637 2750 2635 2704 2678 2702 2686 2693 2105 1265 1037 1581 2141 2311 2393 2260 2156
2174 2217 2433 2764 2794 2722 2628 2693 2727 2653 2899 2847 2721 2089 1543 1172 1479 1554 2248 2464 2345 2359
2211 2289 2366 2715 2805 2755 2644 2631 2552 2585 2903 2977 2914 2343 1567 1316 1576 1606 1687 2375 2553 1917
2348 2479 2534 2773 2787 2675 2598 2396 2652 2785 2884 2984 2965 2953 1647 1187 1655 1795 1909 1758 2016 2156

GFSNIL_con_mlcape_039.txt.gz
CAPE
2318 1694 1428 1421 1050 1026 808 636 1044 2304 2120 2169 2272 2304 2489 2233 2108 1717 1597 1238 90 84
2809 2302 1623 1631 1849 1875 1509 943 1292 1705 2171 2133 2166 2285 2453 1849 2316 1685 1684 1450 1102 133
3048 2954 2328 2202 2197 1895 1914 1893 1860 1631 1726 2176 2257 2350 2461 1855 2058 1973 1381 1027 956 465
2950 2870 2989 2545 2556 2454 2440 2719 1924 2258 2016 2344 2446 2433 2487 2103 1882 2183 1720 1202 889 690
2890 2824 2914 2949 2701 2830 2789 2681 2947 2774 2500 2603 2476 2520 2630 2439 1459 2165 2130 1586 975 655
2794 2873 2707 2937 3029 3009 2983 2997 2853 2830 2941 2819 2601 2441 2762 2767 2432 2268 2232 2056 1630 1067
2830 2706 2740 2774 3150 3039 3203 3153 2950 2930 3093 3083 3044 2758 2711 2776 2841 2598 2386 2341 2124 1678
2828 3018 2987 2871 2993 3097 3216 3299 3237 3085 3136 3476 3256 2701 2741 2551 2892 2919 2622 2535 2515 2178
2739 3048 3118 3159 3083 3289 3140 3291 3341 3359 3224 3320 3402 2602 2184 2623 2752 3031 2958 2685 2756 2463
2673 2984 3256 3366 3389 3302 3399 3440 3371 3415 3426 3342 3471 2691 1957 1826 2544 2781 2890 2895 2867 2781
2623 3059 3265 3438 3506 3592 3599 3517 3551 3558 3550 3543 3566 3122 2092 1656 1974 2413 2797 2858 2899 3078
2993 3066 3491 3517 3518 3657 3678 3694 3651 3712 3676 3633 3627 3219 2631 1775 1915 2127 2319 2680 2927 3000
2998 3265 3492 3661 3816 3835 3756 3682 3637 3556 3708 3705 3745 3502 2802 2301 2257 2102 2267 2474 2674 2639
3171 3457 3441 3548 3850 3947 3821 3316 3606 3571 3629 3698 3645 3896 2997 2400 2631 2326 2248 2411 2537 2898

GFSNIL_con_mlcape_042.txt.gz
CAPE
1843 2104 718 1237 1117 466 1047 1223 1980 1521 2181 1915 2141 1865 2451 2466 2067 2412 1580 1604 217 219
1564 2374 1695 859 1601 1629 917 1557 1341 1813 2067 2061 2413 1974 2521 2292 2550 2207 2008 1632 1430 138
2601 2043 2050 1540 1707 1380 2039 1111 1985 2293 2135 2501 2498 2532 2577 2658 2152 2233 2272 1805 1651 780
2879 2623 2246 1991 2012 2302 1769 2559 1507 2714 2601 2498 2441 2505 2776 2229 2318 2128 2099 1884 1522 1365
2896 3148 2831 2257 2182 2440 2678 2170 2807 2312 2328 2372 2249 2727 2516 2595 1836 2311 2278 1757 1591 1614
3132 3148 3180 3005 2509 2557 2466 2946 2383 3055 2790 2372 2583 2547 2883 2645 2401 1496 2661 2486 1810 1285
3350 3315 3329 3279 3293 2757 2929 2626 2901 2811 2907 3082 2823 2809 2738 2882 2950 2613 1931 2868 2554 1944
3069 3358 3277 3312 3384 3535 3148 3209 2969 3067 3189 3051 3173 3061 2871 2768 2921 2986 2695 2301 2746 2525
2857 3014 3339 3236 3251 3326 3601 3443 3537 3347 3111 3240 3253 3157 2819 2819 2883 2996 2928 2761 2575 2721
2908 3131 3299 3405 3333 3306 3454 3602 3564 3618 3477 3100 3354 3081 2802 2603 2872 2947 3008 3013 2891 2730
3045 3129 3380 3504 3496 3562 3513 3671 3614 3695 3690 3476 3370 3156 2818 2583 2680 2818 2880 3011 3083 2962
3021 3039 3381 3612 3606 3660 3753 3702 3882 3780 3771 3736 3650 3311 2968 2632 2613 2622 2671 2953 3029 3036
2459 3168 3345 3634 3841 3894 3864 3923 3855 3856 3826 3822 3747 3620 3109 2762 2954 2621 2507 2613 2861 2785
3137 2832 3408 3570 3957 4005 3978 4004 3993 3956 3982 3939 3883 3845 3371 2791 3231 3092 2647 2490 2503 2598

GFSNIL_con_mlcape_045.txt.gz
CAPE
1616 954 653 483 323 28 649 982 1201 1460 2089 1690 1440 1390 1499 1599 1778 1420 537 728 74 0
772 1909 969 353 653 1028 452 1065 1259 1369 1824 1912 1600 1294 1423 2065 1685 1923 1621 856 457 134
956 813 1974 1041 395 611 1258 458 1470 1656 1728 1667 1683 1495 1324 1785 2214 1723 1957 1602 1101 284
1772 1323 1080 1920 926 513 1222 1622 750 1380 1813 1762 1821 1803 1587 1511 2094 2065 2040 1891 1572 1193
2186 2193 1420 1327 1887 637 1128 1216 1927 1994 1896 2130 1974 1871 1992 1913 2109 1911 1772 2043 1721 1506
2110 2370 2204 1672 1325 1892 977 1573 1420 1984 2369 2092 2098 2100 2129 1994 1910 1868 2009 1923 1748 1544
2438 2415 2448 2453 2077 1326 1919 1654 1912 1678 2013 2436 2247 2128 2115 2077 1944 1921 1564 2010 2245 1957
2670 2600 2584 2587 2783 2525 1812 2112 2007 2127 2135 2373 2415 2311 2117 2184 2243 2176 1941 1475 1872 2184
2869 2941 2777 2857 2792 2918 2888 2309 2499 2346 2290 2418 2692 2592 2349 2310 2347 2465 2375 2145 1809 2055
2854 2970 3024 3046 3136 3063 3104 3176 2742 2729 2642 2543 2654 2642 2583 2498 2589 2521 2620 2568 2522 2172
2650 2836 2958 3055 3108 3143 3172 3250 3388 3193 3068 2969 2878 2664 2489 2592 2821 2733 2614 2710 2701 2651
2449 2694 2915 2946 3093 3170 3184 3182 3255 3455 3396 3315 3224 2928 2621 2536 2738 2858 2801 2802 2877 2909
2715 2850 2886 3074 3140 3286 3289 3269 3288 3338 3466 3402 3390 3315 2867 2665 2926 2814 2823 2819 2819 2775
2555 2767 3011 3081 3354 3430 3471 3480 3506 3489 3511 3622 3569 3562 3184 2815 3109 3100 2994 2846 2725 2678

GFSNIL_con_mlcape_048.txt.gz
CAPE
457 425 272 282 251 46 137 341 429 758 1077 1514 1488 1207 1173 1278 1155 588 455 449 118 0
585 521 457 421 195 99 80 328 488 826 1251 1455 1556 1386 1283 1322 1507 1404 924 386 576 102
738 1038 725 511 447 373 126 350 513 840 1255 1486 1471 1529 1218 1197 1441 1660 1487 1318 884 432
640 537 1274 1075 474 354 535 590 734 979 1175 1386 1490 1526 1414 1117 1327 1609 1651 1609 1483 1100
1060 832 566 1118 1344 810 469 406 834 1023 1267 1486 1604 1624 1555 1256 1280 1443 1695 1817 1736 1608
1293 1277 1040 681 985 1393 1011 712 606 1275 1547 1312 1426 1732 1672 1483 1374 1329 1448 1804 1769 1739
1386 1642 1594 1384 968 1030 1302 889 757 835 1434 1849 1931 1739 1721 1700 1595 1559 1528 1613 1681 1675
1530 1597 1930 1887 1670 1334 1143 1329 1137 766 1361 1800 1932 2153 2016 1851 1683 1743 1736 1573 1677 1765
1874 1819 1800 1959 2018 1869 1638 1219 1345 1370 1386 1432 1867 2089 2025 2152 2018 1928 1926 1714 1521 1543
1976 2101 2086 2132 2185 2277 2157 2037 1407 1474 1591 1491 1777 1956 2009 2069 2224 2194 2109 2013 1922 1806
2303 2291 2434 2478 2419 2400 2521 2569 2403 2031 1998 2062 1947 1894 1909 2023 2269 2274 2255 2327 2305 2260
2180 2480 2582 2715 2780 2724 2818 2801 2845 2898 2703 2448 2546 2328 2058 1953 2244 2419 2537 2476 2430 2529
1854 2375 2537 2693 2749 2928 2945 2957 2992 3014 3145 3120 2933 2730 2417 2211 2457 2469 2519 2674 2733 2500
1726 1861 2274 2532 2715 2780 2930 2981 2968 2980 2993 3079 3192 3163 2658 2455 2860 2824 2788 2728 2689 2741

GFSNIL_con_mlcape_051.txt.gz
CAPE
35 8 15 0 0 93 150 258 407 832 893 910 1071 1014 776 689 791 770 744 210 0 0
123 95 59 32 9 0 74 241 288 375 684 861 954 1310 1163 950 866 961 701 371 381 70
201 189 193 117 50 7 72 134 255 321 480 647 801 1223 1366 1206 999 1161 1054 911 545 415
311 311 332 300 235 196 100 95 218 294 425 746 817 1074 1304 1386 1261 1060 1280 1382 1132 914
433 500 539 435 334 261 269 303 167 295 530 655 1008 1102 1221 1275 1372 1235 1091 1286 1477 1377
479 403 454 810 862 490 359 345 458 486 753 941 1031 1207 1310 1309 1320 1351 1214 1206 1279 1401
713 680 527 456 664 922 778 604 549 595 499 677 1130 1201 1235 1267 1348 1473 1433 1332 1338 1368
795 928 982 873 624 599 898 881 722 782 859 935 884 1341 1528 1433 1385 1433 1431 1397 1378 1456
853 1008 1151 1167 1106 929 783 981 979 631 657 819 1124 1117 1212 1557 1738 1633 1558 1466 1426 1463
1138 1126 1260 1469 1557 1429 1194 1107 1066 1176 1007 809 1016 1152 1153 1366 1728 1759 1811 1792 1710 1642
1513 1533 1521 1573 1717 1803 1771 1569 1405 1197 1260 1304 1240 1199 1102 1308 1606 1810 1908 1889 1866 1892
1737 1722 1893 1879 1813 1926 2023 2083 1999 1871 1563 1418 1546 1325 1280 1293 1582 1739 1949 2077 2063 2130
1788 1900 1949 2049 2083 2141 2306 2262 2377 2435 2472 2269 2097 1924 1654 1429 1758 1837 1963 2128 2231 2130
1767 1879 2166 2253 2355 2436 2496 2556 2632 2664 2695 2822 2768 2678 2121 1918 2245 2290 2356 2375 2414 2441

GFSNIL_con_mlcape_054.txt.gz
CAPE
0 0 0 0 0 0 0 0 197 426 709 885 983 916 687 576 772 607 271 101 0 0
0 0 0 0 0 0 0 0 61 272 457 701 832 848 922 818 651 712 724 850 539 122
10 0 0 0 0 0 0 0 115 270 423 482 696 807 957 1164 1060 823 771 794 751 587
81 38 23 0 5 3 0 0 10 181 256 312 387 528 725 944 1328 1223 1045 937 1007 1023
144 120 59 50 49 20 17 0 0 128 218 285 360 497 659 771 1198 1367 1353 1205 1066 1120
212 192 112 117 133 111 119 108 18 34 171 205 366 549 663 944 999 1198 1349 1427 1285 1143
304 273 232 246 255 169 170 236 242 150 177 272 284 605 812 967 1099 1249 1285 1347 1449 1446
360 337 317 395 517 594 322 261 261 277 283 324 499 568 871 1166 1105 1110 1153 1181 1330 1539
450 431 397 337 351 496 722 673 562 443 445 407 460 495 483 597 906 1320 1329 1123 1202 1369
470 614 645 667 630 485 449 646 714 715 664 620 599 583 529 603 811 891 1190 1381 1522 1572
663 675 808 944 931 915 834 660 672 801 888 793 725 625 510 514 826 983 972 1020 1219 1456
881 886 947 1043 1148 1215 1251 1183 1062 1042 1038 1070 1098 781 658 621 903 1135 1212 1447 1514 1572
1152 1189 1214 1184 1242 1425 1546 1544 1618 1560 1548 1320 1345 1235 972 840 1116 1153 1285 1514 1712 1658
1476 1465 1506 1565 1668 1715 1784 1899 1995 2041 2089 2044 1794 1806 1389 1126 1471 1627 1737 1790 1903 2009

GFSNIL_con_mlcape_057.txt.gz
CAPE
164 162 142 213 170 184 131 303 799 913 1185 1318 1625 1600 1571 1519 1495 1466 1059 609 287 51
227 218 197 201 222 188 174 105 400 478 725 1039 1324 1569 1674 1611 1554 1395 1529 1320 1182 758
235 289 269 299 155 191 219 124 58 267 706 947 1141 1407 1611 1554 1775 1751 1582 1502 1672 1666
266 326 339 293 307 279 243 271 240 225 460 827 1061 1252 1424 1405 1668 1887 1963 1893 1637 1417
266 326 344 315 360 394 301 315 340 378 454 724 883 1055 1194 1069 1228 1533 1772 2067 2076 1757
248 327 361 422 444 463 408 370 374 402 368 376 698 954 1130 1059 1260 1524 1641 1997 2201 2142
358 357 451 527 541 565 524 430 467 486 499 489 621 860 1150 1254 1246 1370 1685 1918 2124 2217
511 539 600 703 694 697 672 577 622 614 603 667 736 624 789 1024 1283 1498 1625 1826 1995 2138
687 698 737 777 821 820 691 633 755 755 759 797 826 452 359 705 1121 1610 1743 1601 1814 1865
841 815 826 875 953 1015 932 956 834 826 839 888 1003 585 269 184 662 1014 1240 1492 1762 1916
900 894 931 949 947 946 1086 1172 1253 1227 1250 1146 1141 796 424 248 470 858 1171 1354 1448 1516
925 1001 1107 1093 1091 1075 1037 1018 1064 1309 1458 1331 1301 902 559 450 850 1020 1161 1440 1612 1701
976 1002 1121 1234 1299 1396 1403 1357 1394 1317 1439 1468 1424 1274 638 470 1017 1205 1286 1616 1800 1541
1271 1295 1327 1414 1587 1754 1799 1857 1986 1936 1957 1867 1715 1740 1126 694 1199 1454 1678 1758 1782 1960

GFSNIL_con_mlcape_060.txt.gz
CAPE
704 439 608 752 495 483 287 297 547 1629 1670 1881 1915 2037 1978 1523 1491 1498 1416 1446 961 239
906 674 385 621 714 550 634 347 472 779 1492 1402 1550 1861 1827 1639 1943 1854 1620 1645 1548 1061
807 940 771 750 861 840 582 761 433 679 885 891 1068 1630 1972 1677 1980 2269 1924 1494 1702 1913
716 772 993 853 1016 1165 1025 866 1125 734 653 653 1240 1587 1894 1793 1526 2145 2350 2113 1768 1900
894 844 740 984 1021 1192 1279 1164 1254 1136 967 615 820 1320 1826 1782 1272 1663 1902 2088 2076 2113
805 820 819 986 1115 1254 1355 1423 1266 1244 1241 1048 828 1234 1624 1755 1637 1540 1610 1835 2047 2176
850 833 845 1106 1294 1282 1464 1561 1487 1302 1329 1293 1017 753 1119 1375 1621 1527 1552 1875 2052 2303
1145 1078 1071 1244 1412 1441 1524 1586 1650 1518 1384 1426 1230 681 779 1001 1121 1455 1642 1760 2151 2303
1416 1356 1367 1444 1580 1675 1636 1633 1703 1594 1492 1454 1295 689 362 644 737 972 1467 1760 2016 2213
1626 1723 1671 1632 1709 1719 1671 1757 1818 1743 1617 1670 1725 1060 536 336 503 567 1049 1616 1819 1751
1780 1812 1942 1983 1965 1946 1884 1902 1880 1805 1840 1875 1898 1465 985 512 780 941 1127 1376 1570 1930
1931 1883 1910 2003 2060 2054 2033 2060 2028 1943 1989 1989 2015 1432 1063 830 1048 1116 1447 1498 1677 1782
2021 2045 2011 2085 2116 2153 2068 2091 2051 2076 2216 2273 2419 2156 1272 1004 1337 1248 1269 1667 2112 1723
1936 2114 2120 2242 2257 2254 2123 1999 2122 2061 2165 2263 2290 2403 1720 1136 1566 1333 1296 1334 1163 1386

GFSNIL_con_mlcape_063.txt.gz
CAPE
779 210 224 615 409 281 112 151 1640 1879 1486 1730 1986 1557 1711 1578 1532 1724 1437 1512 1092 725
848 249 43 531 909 990 555 316 264 878 1564 1409 1292 1691 1676 1437 1932 1322 1902 1626 1657 1152
1283 1041 691 1123 1569 943 929 829 667 683 786 1351 1354 1362 1925 1517 1681 1966 1740 1212 1584 1471
1303 931 953 1475 1510 1411 1296 1446 1234 1194 1079 1062 1223 1284 1979 1798 1731 2105 1969 1977 1482 1753
1505 1041 1015 1210 1358 1719 1814 1754 1723 1708 1489 1301 916 1305 2055 1820 1398 1835 1818 2058 2014 1762
1402 1459 1051 1513 1454 1653 1940 2082 1684 1802 2018 1680 1139 1275 1973 2235 2001 1767 1852 1802 1952 2124
1409 1424 1237 1392 1674 1725 2003 2181 2122 2164 2147 1985 1651 1261 1271 1756 2113 2082 1729 1823 1878 2087
1516 1493 1475 1298 1709 1833 2103 2239 2393 2425 2322 2244 1799 1393 1278 1480 1796 2080 1912 1846 1934 2002
1504 1648 1606 1523 1715 2006 2147 2310 2502 2449 2520 2330 1657 1116 843 1048 1184 1465 1704 2005 2216 2163
1526 1699 1740 1729 1852 2059 2272 2497 2650 2614 2639 2628 2410 1240 829 517 778 1229 1498 1708 2196 2204
1860 2048 2093 2097 2104 2281 2467 2455 2601 2692 2732 2804 2710 1994 1088 698 842 878 1061 1614 1914 2079
2122 2264 2441 2397 2468 2582 2683 2710 2639 2877 2902 2916 2774 1931 1397 1049 1198 1255 1512 1676 1551 1795
2377 2613 2749 2766 2736 2830 2958 2885 2474 2639 2990 3039 3081 2668 1619 1271 1629 1503 1560 1921 2156 1990
2655 2766 2969 3051 3123 3151 3093 2489 2920 2817 2895 2940 2777 3102 2112 1353 1913 1623 1525 1546 1286 1540

GFSNIL_con_mlcape_066.txt.gz
CAPE
957 332 588 1091 369 993 409 948 1373 1502 1799 1855 1663 1822 1598 1378 1775 1478 1421 1328 1034 925
1056 953 397 616 872 652 671 841 1730 1598 2013 2328 1968 1528 1553 1346 1209 1495 1492 1608 1344 1103
266 910 627 138 906 781 871 346 1945 2160 1843 1507 2020 1934 1839 1709 1381 1436 1344 1761 1834 1185
1056 591 376 650 220 1090 812 1787 870 1504 1498 1908 1545 2027 1901 1423 1844 1768 1494 1813 1982 1379
1650 1116 804 192 1173 1671 1944 1273 2216 1404 1799 1434 1720 1824 1776 1863 1478 1861 1488 1372 1496 2198
1567 1637 1245 654 839 1608 1352 1730 1632 2321 1756 1926 1684 1523 1628 2046 2138 1747 2332 2392 2467 1893
1743 1663 1444 1361 632 1427 1989 1688 1858 1837 2231 2147 2035 1717 1540 2388 2352 2300 1995 2447 1994 2195
1816 1717 1741 1381 1504 1218 1325 1845 2191 2178 2285 2377 2349 2130 1571 1495 2190 2334 2435 2264 2111 2238
1652 1752 1765 1687 1598 1753 1691 1937 2216 2388 2348 2480 2475 1974 1395 1485 1443 2134 2190 2094 2058 2346
1603 1652 1739 1876 1555 1839 1854 1956 2229 2397 2555 2579 2556 1943 1099 1065 1418 1380 1638 2175 2160 2196
1490 1599 1854 1754 1859 1559 1953 1980 2223 2398 2585 2676 2799 2402 1453 819 1051 1275 1482 1654 1716 1856
1399 1770 1878 1986 1925 1899 1909 2227 2252 2459 2646 2569 2710 2547 2040 1217 921 1045 1079 1106 1230 1934
1689 1807 1996 2061 2091 2108 2145 2194 2461 2494 2689 2844 2718 2612 2070 1668 1652 1289 1292 1492 1580 1467
2570 1947 2326 2417 2457 2451 2437 2548 2667 2695 2752 3007 2981 3058 2301 1518 2023 1677 1714 1652 1711 1993

GFSNIL_con_mlcape_072.txt.gz
CAPE
30 40 110 544 693 840 883 1004 1259 1442 1258 884 485 711 816 898 862 972 839 803 791 847
135 63 54 504 820 758 699 763 1041 1458 1328 1139 854 840 974 842 791 837 908 630 736 495
58 176 64 77 396 1035 792 737 828 1132 1260 1041 882 700 823 752 718 717 698 715 575 505
3 74 284 75 81 435 938 842 1027 1120 954 1144 947 859 905 881 834 835 788 691 878 581
0 0 184 245 60 78 388 728 1032 935 1138 1207 1072 947 930 788 910 900 1070 906 842 803
66 0 11 206 231 66 147 562 1240 1001 1087 1328 1121 1362 1263 1087 1023 1085 1127 1257 1200 997
440 131 0 30 162 185 92 178 517 1334 1257 1173 1199 1404 1510 1469 1353 1220 1169 1168 1165 1323
599 630 235 0 22 18 138 135 278 538 1185 1448 1407 1275 1087 1017 936 916 952 1147 1222 1376
511 747 731 410 44 18 0 72 234 257 594 830 1301 1263 1092 1083 1056 1006 940 721 954 1401
1005 786 807 915 593 307 123 0 169 382 617 1121 1236 1273 1201 1127 1063 981 1006 951 1001 1309
1411 1289 1086 986 1086 889 661 287 104 543 554 613 1120 1307 1289 1251 1237 1108 1003 1070 1202 1307
1661 1598 1422 1290 1195 1167 1051 818 465 353 920 1106 1062 889 835 875 1141 1234 1233 1101 1070 1215
362 1439 1599 1529 1409 1332 1183 1135 993 762 537 653 1104 1370 1181 972 1192 995 1092 1201 1113 1019
360 1251 1492 1581 1495 1441 1410 1251 1261 1203 1042 1091 1160 1210 1049 1009 1426 1317 1016 944 874 891

GFSNIL_con_mlcape_075.txt.gz
CAPE
0 30 103 141 364 494 707 790 897 1073 1076 1030 572 817 506 795 915 742 592 617 811 736
0 0 8 86 246 600 578 858 916 1110 1208 1232 977 534 837 819 821 893 760 678 707 550
46 20 0 0 95 517 683 720 855 1094 1140 1131 1220 996 767 970 904 861 581 718 766 640
32 64 16 0 30 53 561 808 762 860 1052 937 1225 1241 930 779 876 803 741 599 736 610
0 0 1 0 0 7 42 267 925 874 922 1056 1101 1188 1021 753 921 901 787 887 844 775
0 0 0 0 0 0 22 0 232 808 1073 1102 1075 1046 1089 940 794 964 955 972 1283 1244
38 0 0 0 0 0 0 7 50 388 928 1022 932 1149 1168 1033 1012 988 1020 1126 1118 1103
180 66 0 0 0 0 0 0 0 111 699 1140 1180 1139 1167 1131 1261 1292 1228 1260 1246 1187
252 247 75 0 0 0 0 0 0 0 85 410 1182 1274 1109 1084 1245 1253 1193 1042 986 1055
298 362 401 225 0 0 0 0 0 0 0 34 261 738 1086 1114 1224 1082 988 983 943 875
642 452 467 565 410 147 4 0 0 0 0 0 25 75 99 555 1016 1071 1021 1004 977 952
932 936 733 699 714 653 343 154 70 27 0 29 60 113 123 285 879 1060 1088 1011 958 962
525 1275 1307 1086 948 887 845 694 526 350 98 172 337 178 158 254 569 782 986 1183 984 678
5 90 415 916 1259 1241 1067 1044 945 805 583 292 406 717 479 306 505 475 619 741 755 707

GFSNIL_con_mlcape_078.txt.gz
CAPE
0 0 29 98 198 282 292 473 616 845 1007 840 755 659 460 455 445 630 621 642 728 729
0 0 0 70 167 240 360 456 626 746 858 890 742 612 573 490 501 832 827 650 684 658
0 0 0 12 93 145 263 508 624 785 928 863 808 739 642 522 730 782 811 812 842 832
0 0 0 0 9 67 151 354 609 746 916 919 684 600 763 807 689 806 760 750 645 581
0 0 0 0 0 0 21 126 378 708 850 886 820 848 933 868 959 569 630 662 691 562
0 0 12 0 0 0 0 0 41 230 748 912 869 899 1013 1037 1043 856 653 822 844 889
0 0 0 9 0 0 0 0 0 52 200 538 852 980 972 893 994 951 787 743 825 959
0 0 0 0 0 0 0 0 0 0 55 204 456 834 917 830 936 966 861 880 893 963
52 1 0 0 0 0 0 0 0 0 0 21 272 452 705 957 997 1087 1016 962 1107 1152
167 167 124 6 0 0 0 0 0 0 0 0 6 114 205 513 1034 1091 1036 1029 1109 1024
213 241 250 209 57 0 0 0 0 0 0 0 0 0 2 54 457 803 979 997 990 979
442 357 307 345 384 233 46 0 26 10 0 30 44 0 0 0 30 126 345 438 546 747
64 301 582 513 475 466 424 271 91 46 29 0 140 39 1 0 14 1 0 87 224 239
0 7 72 492 828 604 642 615 548 423 312 164 110 173 17 20 176 259 153 89 89 366

GFSNIL_con_mlcape_081.txt.gz
CAPE
579 579 614 802 706 765 965 1068 1322 1592 1442 1547 1468 1401 1305 1196 1289 1322 1418 1411 1462 1530
440 415 464 532 702 764 887 1011 1213 1370 1328 1368 1555 1513 1316 1206 1090 1322 1403 1396 1419 1395
316 295 323 533 501 697 931 994 1160 1327 1471 1100 1279 1311 1298 1230 1304 957 1273 1592 1718 1539
292 247 224 254 392 579 776 885 1102 1353 1551 1614 1452 1493 1369 1293 1447 1290 1387 1584 1596 1536
243 191 207 174 164 340 654 831 831 1219 1466 1643 1699 1688 1387 1238 1335 1430 1296 1432 1461 1349
152 191 162 197 225 189 190 554 767 961 1140 1551 1709 1685 1621 1705 1429 1697 1675 1441 1460 1547
176 131 128 311 370 235 211 159 340 654 753 1036 1564 1687 1662 1792 1834 1826 1817 1717 1536 1535
404 370 198 126 293 461 413 317 326 313 614 872 1042 1294 1615 1709 1724 1669 1666 1784 1695 1552
397 432 409 288 138 292 342 400 353 338 317 432 642 492 632 1222 1596 1586 1521 1584 1734 1662
465 482 439 399 317 282 244 318 331 292 323 214 353 257 211 307 993 1546 1625 1567 1674 1741
583 575 625 607 487 367 332 306 338 372 361 338 328 67 0 2 405 1138 1491 1686 1687 1649
93 597 691 741 701 575 447 377 347 382 441 429 360 91 0 0 38 383 980 1285 1454 1564
4 40 124 686 864 881 912 599 505 373 389 408 479 324 10 0 49 95 136 521 1017 815
3 3 9 51 250 727 850 959 960 695 537 421 456 462 142 0 49 328 507 440 397 343

GFSNIL_con_mlcape_084.txt.gz
CAPE
1358 1130 1019 770 352 794 884 1074 1163 1931 1564 1420 1466 1592 1584 1083 959 1139 1088 1492 1559 819
1361 1281 703 475 867 798 708 954 1487 1746 1086 1266 1498 1672 1832 1172 1584 1608 1472 1301 1539 1320
1226 1325 1201 960 857 822 521 1037 1117 1826 1863 1332 1647 1663 1893 1397 1665 1505 1056 1058 1368 1686
966 1056 1194 1013 925 841 890 1070 1411 1770 1769 1424 1670 1894 1958 1491 1475 1336 1267 1430 1640 1849
1042 1042 908 993 790 771 950 936 1431 1608 1660 1587 1463 1817 2038 1609 1018 1567 1595 1424 1589 1711
983 1050 982 734 914 801 889 972 1008 1354 1697 1557 1245 1587 2144 1919 1780 1830 1655 1751 1735 1579
659 710 745 700 685 869 966 955 749 963 1231 1548 1550 1199 1606 1847 2094 1967 2089 2129 2028 1773
904 827 712 740 575 665 912 1035 1028 801 792 1025 1241 1440 1397 1497 2026 2063 2212 2186 2280 2029
880 909 1025 1071 981 795 830 1068 1135 1103 866 620 333 411 793 1399 1809 1646 2001 2035 2161 2171
842 843 961 1017 1109 1143 992 829 1116 1149 1071 1017 861 144 87 494 875 1106 1643 1860 1791 1761
110 625 956 985 1065 1045 1083 1050 1046 1086 1176 1138 1169 745 275 26 542 833 1172 1326 1560 1836
3 4 126 879 1112 1206 1078 1115 1075 1062 1132 1253 1248 874 496 230 413 230 609 1082 1437 1659
0 4 3 67 623 917 1220 1107 1108 1036 1129 1160 1241 1192 689 247 514 444 353 293 993 1188
0 0 2 1 4 469 953 1160 1194 1401 1300 1262 1249 1222 729 375 573 560 533 468 287 264

GFSNIL_con_mlcape_087.txt.gz
CAPE
1631 1212 737 967 912 412 964 894 2354 2052 1692 1594 1558 1504 1696 1538 1047 1018 1225 1603 1641 1843
1731 1596 750 826 945 792 850 880 1277 1290 1482 1501 1542 1567 1540 1538 1403 1836 1489 1511 1338 1296
1574 1763 1449 941 863 759 956 796 675 1427 1563 1612 1492 1524 1576 1635 1616 1394 1393 894 1537 1400
1418 1580 1735 1438 1227 1035 984 1140 1223 1838 1763 2004 1820 1840 1789 1863 1877 1842 1566 1455 1414 1591
1307 1378 1400 1602 1454 1343 1278 1047 1135 1402 1692 1506 1775 1984 1929 1712 965 1345 1527 1448 1517 1427
1480 1419 1315 1322 1524 1401 1288 1286 981 1170 1702 1580 1575 1698 1909 2069 1820 1521 1701 1574 1503 1433
1390 1504 1476 1571 1489 1335 1416 1415 1387 1157 1468 1792 1750 1458 1589 1871 1988 2059 2014 1853 1629 1565
1333 1308 1305 1377 1464 1326 1374 1470 1521 1522 1258 1419 1291 1323 1624 1587 1720 1836 1814 2276 2190 1959
839 919 1273 1555 1403 1440 1148 1299 1766 1665 1560 1340 894 376 501 1513 1626 1808 1774 1797 2049 2496
46 215 460 959 1270 1611 1724 1515 1584 1796 1728 1753 1704 892 68 273 922 1405 1965 1908 1979 2229
1 4 10 265 1064 1270 1329 1508 1703 1572 1846 1964 1976 1423 810 92 411 898 1266 1558 2120 2029
0 0 2 4 14 544 1099 1298 1363 1494 1694 1852 1980 1571 1080 678 628 390 673 1151 1344 1643
0 0 0 0 0 2 192 1014 1364 1396 1555 1656 1709 1811 1382 861 1054 907 856 1008 1042 791
0 0 0 0 0 0 2 50 668 1310 1512 1488 1532 1630 1240 969 1339 1122 969 939 899 1000

GFSNIL_con_mlcape_090.txt.gz
CAPE
1361 1061 994 932 1257 204 1099 984 1384 1335 1855 1826 1559 1742 1582 1742 1508 1615 1365 1140 1336 1347
1888 1559 533 646 482 1128 792 704 894 1290 1933 1681 1547 1482 1684 1647 1414 1180 1142 1651 1199 1276
2024 1909 1687 1408 898 1268 992 52 298 505 904 1434 1596 1476 1465 1657 1288 1486 1671 1196 1804 534
1841 2064 2001 1673 1283 811 1100 898 414 0 0 1141 1544 1626 1687 1168 1060 1222 1121 1635 1362 1252
1906 1906 2050 1888 1693 1486 1192 1175 1192 877 1219 1606 1821 1625 1468 1810 1574 1298 1610 1550 1551 1369
1828 1937 1964 2114 1918 1954 1713 1547 1252 1087 1506 1863 1427 1833 1566 1336 1540 1552 1676 1760 1615 1502
1774 1638 1750 1905 1793 1891 1901 1698 1437 1590 1608 1925 1508 1816 1875 2061 1573 1316 1640 1844 1936 1949
344 1411 1939 2046 1924 1734 1875 1820 1769 1858 1711 1915 2052 1992 1641 1678 2093 1706 1703 1893 1915 2102
108 251 678 1032 1261 1528 1551 1510 1808 1983 1985 1844 1587 1062 708 1824 1644 1884 1901 1705 1687 1847
2 4 37 183 691 1332 1369 1496 1563 1263 2052 1955 2028 1508 788 296 1048 1949 1892 2000 1837 1420
0 0 0 0 26 117 617 1317 1400 1462 1467 1626 1927 1974 1607 985 703 600 1050 1670 2076 2040
0 0 0 0 0 0 3 159 990 1465 1544 1716 1699 1695 1558 1406 1282 1058 800 832 1272 1469
0 0 0 0 0 0 0 4 208 583 1271 1463 1347 1431 1254 1131 1481 1439 1392 1211 938 644
0 0 0 0 0 0 0 0 4 107 461 936 1149 1223 1170 896 1343 1517 1506 1388 1328 1450

GFSNIL_con_mlcape_093.txt.gz
CAPE
461 601 397 476 126 580 635 851 1022 1143 1357 1188 1338 1362 1387 1136 1144 1153 745 571 826 555
765 335 720 729 866 624 858 1282 1349 1194 1215 1449 1174 1103 1422 1243 1479 831 918 535 1166 741
809 431 687 1070 1286 860 649 672 983 851 1334 1442 1492 1131 1235 1055 1167 1077 1103 1211 1003 1277
1076 1207 893 875 1091 1294 631 561 188 380 729 772 1187 1414 1245 1169 1094 973 920 1067 1552 847
1591 1460 1081 1058 1575 1110 837 782 651 90 0 342 796 1362 1421 1197 987 1030 712 903 1048 818
1723 1816 1319 1396 1523 1660 1441 949 806 789 651 856 1030 1553 1386 1167 975 1385 1134 1220 1275 1185
341 820 1488 1929 1829 1811 1778 1666 1445 1329 1280 1542 1568 1394 1564 1499 1132 1118 1118 1414 1810 1651
146 332 292 408 1412 1688 1658 1967 1788 1366 1156 1709 1754 1410 1261 1463 1637 1418 1297 944 1214 1705
22 18 0 0 427 1424 1536 1663 1765 1885 1682 1351 1441 1751 1484 1387 1284 1448 1567 1350 1350 1473
0 0 8 20 148 344 597 1216 1318 1284 1259 1601 1840 1545 1124 797 759 1264 1568 1585 1647 1479
0 0 0 0 0 13 32 273 565 978 1353 1370 1341 1452 1347 1297 815 830 878 1208 1822 1797
0 0 0 0 0 0 0 0 24 238 512 1090 1119 1163 1305 1247 1275 1023 1036 1009 928 1005
0 0 0 0 0 0 0 0 0 0 58 249 661 758 817 777 939 1055 1091 1272 1191 955
0 0 0 0 0 0 0 0 0 0 2 137 437 273 201 387 608 832 994 1102 1195 1304

GFSNIL_con_mlcape_096.txt.gz
CAPE
468 364 236 499 532 541 598 934 902 1141 1143 1030 792 881 1058 1068 1198 1023 983 582 304 537
518 433 411 401 404 231 531 784 936 984 1087 1210 1073 1089 1245 1193 1240 988 727 730 720 751
431 343 172 427 648 810 714 913 937 1150 1071 1126 1305 1153 1189 1228 964 1031 682 975 1137 870
550 604 252 328 1011 870 763 761 878 973 873 1053 1339 1425 1055 1022 1042 900 816 754 967 1298
634 536 757 577 855 821 757 544 766 467 517 680 848 1101 1384 1183 1156 879 757 867 634 787
405 605 618 809 872 878 851 565 448 282 137 61 358 746 1135 1406 1227 1113 1287 882 849 927
157 246 422 696 834 824 1071 883 764 638 578 518 443 789 1077 1446 1195 1030 958 1161 1137 1372
32 93 0 6 148 608 967 1069 1263 1274 1256 1216 1308 1405 1415 1433 1399 1309 1154 1133 1053 1095
22 7 40 9 15 217 420 995 1183 1452 1401 1311 1231 1507 1461 1430 1390 1345 1218 1134 1126 1254
14 1 3 12 7 46 143 243 454 1042 1347 1345 1399 1455 1323 1165 972 1146 1239 1245 1305 1319
0 0 0 0 0 0 1 8 67 198 482 886 1168 1264 1233 1109 956 838 813 875 1014 1121
0 0 0 0 0 0 0 0 0 0 32 147 390 520 540 672 1044 1092 1015 971 944 947
0 0 0 0 0 0 0 0 0 0 0 0 48 102 85 200 572 745 797 903 902 809
0 0 0 0 0 0 0 0 0 0 1 64 0 0 0 16 152 168 306 532 736 728

GFSNIL_con_mlcape_099.txt.gz
CAPE
252 174 188 384 478 523 569 645 835 708 873 812 676 207 673 792 925 735 846 767 608 766
340 358 248 279 424 556 545 563 800 812 933 876 856 743 979 854 975 1164 804 698 600 853
400 443 412 318 395 376 276 372 714 822 871 962 1043 998 928 1065 1100 951 832 700 1020 922
345 393 414 301 338 673 720 688 818 841 922 1008 1003 1050 1040 1056 1039 905 812 772 774 747
579 519 520 484 298 605 815 702 762 722 735 829 965 1100 1237 1112 1022 1006 896 772 748 686
334 457 577 679 631 572 724 570 536 572 502 410 458 665 893 1116 1152 1161 1035 864 1049 674
54 7 51 195 362 533 755 650 689 513 371 127 99 119 440 719 1051 1254 1180 1042 859 909
52 41 17 6 35 199 380 728 774 708 598 519 455 575 664 896 1126 1292 1220 1039 1030 1051
31 33 14 10 14 11 24 197 344 763 1045 1099 1127 1270 1173 1348 1390 1433 1353 1176 1112 1005
0 0 4 0 0 0 0 14 80 167 388 641 815 829 687 713 963 1149 1108 1167 1206 1094
1 0 0 0 0 0 0 0 0 1 30 138 307 327 363 467 679 745 729 715 842 885
0 0 0 0 0 0 0 0 0 0 0 0 41 60 44 113 387 619 661 646 572 726
0 0 0 0 0 0 0 0 0 0 15 87 69 1 0 11 158 210 220 352 524 344
0 0 0 0 0 0 0 0 0 0 55 0 0 0 0 0 0 0 0 0 0 0

GFSNIL_con_mlcape_102.txt.gz
CAPE
139 101 116 199 235 355 363 513 660 782 844 745 603 275 249 660 913 674 591 707 526 695
170 205 175 139 209 353 449 496 585 746 694 765 747 411 599 833 739 910 854 604 571 669
257 241 267 294 321 326 362 366 456 471 599 656 815 786 689 824 956 957 883 762 749 891
174 250 351 368 259 299 390 495 503 545 680 730 809 934 926 857 888 952 831 733 745 779
232 300 269 292 325 272 344 498 472 569 716 758 807 895 892 948 878 869 814 781 690 719
228 312 203 250 327 464 508 525 393 331 525 636 608 682 684 692 944 828 757 573 527 788
0 0 7 28 87 188 448 569 377 379 374 309 184 122 290 432 589 812 949 800 732 776
27 0 0 0 0 1 79 215 540 587 582 460 297 238 245 266 341 710 899 1041 1067 1025
8 14 0 0 0 0 0 0 53 223 526 625 737 791 675 723 974 1114 1183 1310 1377 1259
14 1 0 0 0 0 0 0 0 1 68 199 395 224 295 416 647 759 959 1074 1093 1048
3 0 0 0 0 0 0 0 0 0 0 0 59 1 0 53 307 477 526 487 494 536
0 0 0 0 0 0 0 0 0 0 37 61 0 0 0 9 143 92 89 207 284 252
0 0 0 0 0 0 0 0 0 15 1 0 0 0 0 0 0 0 0 0 0 0
0 0 0 0 0 0 0 0 0 0 0 0 0 0 0 0 0 0 0 0 0 0

GFSNIL_con_mlcape_105.txt.gz
CAPE
488 513 421 371 508 801 878 782 1062 917 982 999 1223 928 979 1313 1651 1380 1443 1390 1237 1412
340 411 443 494 619 709 797 811 1034 1187 1205 1295 1296 1149 825 1272 1216 1597 1524 1387 1307 1367
471 467 559 534 568 634 788 897 870 911 1092 1186 1294 1313 1116 1175 1241 1312 1517 1426 1220 1485
352 621 623 578 411 700 742 769 668 797 793 932 1077 1230 1414 1362 1239 1269 1632 1342 1286 1282
330 400 545 609 442 496 390 806 912 983 658 744 1072 1307 1227 1319 1392 1193 1139 1201 1300 1388
247 337 476 664 677 486 642 901 809 727 776 807 610 1025 1076 1045 1153 924 894 1172 860 982
272 357 335 294 350 564 828 963 763 770 745 804 710 620 547 784 750 799 863 819 1080 1032
10 67 74 74 81 166 364 577 833 892 759 738 612 529 630 692 828 746 1218 1186 880 1052
2 39 29 27 0 0 66 147 412 625 783 820 790 207 293 638 1331 1375 1545 1590 1580 1370
1 0 0 13 0 0 0 52 74 129 282 308 111 0 42 167 1069 1201 1281 1250 1371 1144
2 0 0 0 0 0 0 0 45 139 192 0 0 0 0 114 716 823 625 592 536 648
0 0 0 0 0 0 0 0 54 71 3 0 0 0 0 0 1 0 0 0 0 0
0 0 0 0 0 0 1 2 0 0 0 0 0 0 0 0 0 0 0 0 0 0
0 0 0 0 0 0 0 0 0 0 0 0 0 0 0 0 0 0 0 0 0 0

GFSNIL_con_mlcape_108.txt.gz
CAPE
722 404 493 658 821 626 882 727 964 1000 852 1170 1599 1554 1703 1375 1300 1298 1438 1857 2004 1352
692 443 651 585 935 963 1029 1095 1138 1058 1006 1133 1104 1552 1524 1076 1267 1571 1698 1246 1523 1435
485 798 592 539 320 738 1173 1318 1108 965 985 1230 1521 1654 1338 1092 1097 1298 1184 1047 1448 1331
513 399 817 601 533 746 848 1076 951 981 995 819 1109 1430 1552 1290 1112 1267 1296 1208 1378 1260
497 397 333 591 471 716 604 906 765 845 995 1045 1092 1311 1281 1203 1021 1246 1208 1202 1242 1191
625 323 400 474 704 585 703 656 821 818 820 743 932 938 912 1172 1157 1192 1001 923 998 1127
577 283 493 668 873 686 552 658 690 688 757 664 1056 874 1031 961 902 948 982 1044 985 1047
598 638 681 811 837 896 1044 920 957 784 872 904 885 739 1307 1314 1319 1426 1205 1289 1250 1025
62 89 231 382 439 555 669 912 1183 1171 1041 1019 827 35 188 504 1515 1405 1320 1252 1299 1194
5 0 0 2 124 292 368 415 501 840 833 202 49 0 21 118 946 1305 1246 1324 1479 1400
12 12 0 0 2 44 176 276 321 166 50 0 0 0 13 301 1113 733 312 237 158 92
0 2 6 1 0 0 7 166 52 0 0 0 0 0 0 32 143 101 79 1 0 0
0 0 0 0 0 11 3 1 0 0 0 0 0 0 0 0 0 0 0 0 0 0
0 0 0 1 8 5 1 0 0 0 0 0 0 0 0 0 0 0 0 0 0 0

GFSNIL_con_mlcape_111.txt.gz
CAPE
855 593 721 694 647 500 792 537 1385 1155 1453 1279 1543 1651 1796 1557 1540 1362 1517 1853 2164 1929
736 624 831 808 1090 973 962 760 1054 831 930 1219 1478 1454 1668 1247 1367 1957 1739 1402 1639 1549
512 632 661 868 774 847 595 1534 1213 1044 1000 1238 1362 1547 1528 1340 1417 1326 1288 1057 1148 1735
373 377 537 702 727 937 1069 1305 1417 1242 1118 1252 1268 1303 1482 1579 1445 1396 1189 1139 1250 1217
780 446 294 417 604 749 1034 1088 1147 1298 1366 1128 1252 1296 1440 1256 1057 1159 1234 1126 976 928
1044 682 439 303 333 618 1081 1173 1040 1135 1259 1430 1424 1582 1658 1460 1410 1402 1171 1085 1058 988
912 964 617 453 333 426 677 978 1011 1130 1050 1070 1165 1386 1290 1206 1296 1215 979 921 929 1036
917 1057 778 901 720 499 461 739 765 881 855 1003 951 816 924 1276 1329 1305 1101 1027 1174 1117
574 612 879 825 814 677 707 895 805 758 830 971 91 7 47 233 1075 1273 1259 1146 1230 865
150 98 116 152 456 562 557 681 766 977 634 194 0 0 0 69 530 989 1235 1310 1800 1631
2 0 0 0 0 52 216 337 564 197 14 0 0 0 0 64 1212 745 656 531 435 316
36 39 21 3 0 1 60 84 50 12 0 0 0 0 0 113 495 442 163 0 0 0
1 1 29 63 60 62 37 8 0 0 0 0 0 0 0 0 72 129 57 11 0 0
1 1 2 4 22 3 0 0 0 0 0 0 0 0 0 0 0 0 0 0 0 0

GFSNIL_con_mlcape_114.txt.gz
CAPE
740 703 773 611 548 222 688 992 1195 1088 1292 1162 1241 1458 1552 1581 1375 1699 1664 2046 1726 1412
876 709 622 559 109 47 1022 896 1298 1122 1177 995 1019 1366 1366 1273 1142 1247 1780 1238 1414 974
892 693 789 926 809 768 565 39 0 922 776 990 968 859 1177 1035 1090 1082 1305 1258 1287 1711
413 483 821 720 901 1055 245 44 800 1116 1095 1020 1054 844 1089 1067 763 1161 1326 1296 1131 1030
250 466 552 483 652 907 799 1128 894 1296 1205 1280 1152 1024 1177 1042 1039 831 868 1179 1246 813
917 342 380 406 491 582 1047 1093 1153 976 1135 1178 956 1001 803 1212 1196 995 1084 765 813 709
680 766 484 648 500 322 853 733 847 857 981 1062 771 880 894 1381 1034 1263 949 1103 728 596
493 501 737 742 648 501 594 1004 933 776 855 968 504 115 233 415 604 935 862 979 1049 968
90 163 224 361 438 546 424 482 578 667 761 235 0 0 0 83 122 532 330 704 733 454
238 101 112 109 319 121 368 531 542 536 154 0 0 0 0 6 284 568 1042 991 678 598
67 15 1 1 4 56 143 258 61 8 0 0 0 0 0 0 622 701 326 164 238 0
59 1 0 0 0 2 2 0 0 0 0 0 0 0 0 152 582 140 0 0 0 0
0 20 10 0 0 0 0 0 0 0 0 0 0 0 0 0 103 176 19 0 0 0
0 0 0 1 3 0 0 0 0 0 0 0 0 0 0 0 0 0 0 0 0 0

GFSNIL_con_mlcape_117.txt.gz
CAPE
125 12 419 582 486 289 402 443 838 850 940 1201 1311 1005 1544 1272 1386 1421 1688 1478 1539 1326
508 599 562 656 313 144 531 792 809 702 651 754 1092 1012 1234 1276 1137 960 1602 1156 1362 1447
544 598 614 424 62 372 471 390 237 255 563 750 882 1142 1109 1044 918 1248 1129 1115 1145 1436
283 582 514 791 595 695 307 0 0 111 513 596 969 660 956 690 683 766 850 965 1014 1040
475 523 588 520 657 783 254 2 362 486 908 872 756 1034 957 1194 674 883 811 1073 990 942
316 397 410 577 616 586 637 500 672 657 1036 880 1135 905 757 647 849 974 859 773 589 843
329 303 639 635 513 411 750 796 888 998 844 854 588 445 718 649 924 723 816 734 879 774
319 207 407 399 325 436 569 619 571 577 565 142 104 23 128 472 400 281 262 178 441 240
192 262 245 279 289 306 148 338 347 360 74 0 0 0 0 20 90 1 4 0 4 24
78 54 23 54 80 169 164 198 60 3 0 0 0 0 0 0 70 175 62 0 128 2
41 8 8 10 16 67 45 0 0 0 0 0 0 0 0 0 185 4 5 0 0 0
2 0 0 0 0 3 1 0 0 0 0 0 0 0 0 139 14 0 0 0 0 0
35 0 0 0 0 1 0 0 0 0 0 0 0 0 0 0 2 0 0 0 0 0
3 1 1 0 0 0 0 0 0 0 0 0 0 0 0 0 0 1 0 0 0 0

GFSNIL_con_mlcape_120.txt.gz
CAPE
230 89 373 494 469 330 341 448 752 910 598 512 728 795 1259 1078 1080 1155 1244 1121 1140 981
138 0 258 452 412 314 406 539 480 712 827 885 992 669 1121 1104 760 674 1249 1038 718 944
186 399 520 547 390 256 500 545 629 546 411 578 682 857 846 943 783 870 1017 844 820 879
299 442 667 479 261 45 386 270 295 221 332 676 736 850 992 691 503 654 729 543 751 716
287 555 460 511 739 515 423 233 95 0 300 615 663 715 674 717 786 541 579 591 744 411
381 247 399 364 496 629 431 208 34 343 648 816 867 844 964 896 844 952 724 537 569 494
327 366 387 434 539 582 484 446 382 593 528 492 673 599 769 780 686 818 647 486 399 468
488 368 301 381 341 529 578 632 630 629 337 115 169 125 149 261 404 465 168 222 123 111
290 253 230 207 275 274 232 265 212 89 0 0 12 0 0 126 115 98 31 45 0 0
116 43 118 98 142 148 124 22 0 0 0 0 0 0 0 0 79 52 0 0 0 0
95 81 60 57 51 50 44 0 0 0 0 0 0 0 0 3 57 38 1 0 0 0
73 23 28 10 0 0 2 1 4 3 0 0 0 0 1 1 1 0 0 0 0 0
16 8 9 0 0 0 0 0 0 0 0 0 0 0 0 0 0 0 0 0 0 0
11 42 6 0 0 0 0 0 0 0 0 0 0 0 0 0 0 0 0 0 0 0

GFSNIL_con_mlcape_123.txt.gz
CAPE
119 148 217 368 442 408 458 489 545 712 711 448 406 804 1047 1073 951 872 995 955 851 597
134 110 151 320 404 352 278 335 377 634 736 553 686 739 910 956 672 692 1017 904 763 887
223 174 79 277 374 298 237 353 580 475 598 675 706 734 675 789 868 612 966 827 721 883
203 165 155 370 370 286 249 325 429 436 427 462 498 599 795 815 650 551 681 698 590 581
246 232 459 494 380 196 242 258 245 196 175 375 492 583 625 795 658 363 500 474 528 552
345 265 303 447 455 389 204 337 169 43 0 218 511 538 669 657 689 785 440 574 564 583
233 234 271 323 333 408 348 325 163 51 137 503 676 729 737 705 626 698 721 578 434 415
226 372 336 309 378 429 438 474 370 367 381 295 289 175 257 382 492 470 436 209 107 87
331 351 285 283 278 227 244 331 273 299 237 162 38 6 0 0 189 204 143 118 23 4
159 155 81 67 77 87 140 87 46 33 2 0 0 0 0 0 7 66 28 8 0 0
62 53 32 22 11 31 45 14 0 0 0 0 0 0 0 0 17 1 0 0 0 0
37 39 20 7 1 1 0 0 1 0 0 0 0 0 0 1 0 0 0 0 0 0
60 19 5 0 0 0 0 0 0 0 0 0 0 0 0 0 0 0 0 0 0 0
7 13 2 0 0 0 0 1 0 0 0 0 0 2 0 0 0 0 0 0 0 0

GFSNIL_con_mlcape_126.txt.gz
CAPE
150 165 153 130 219 273 375 429 521 639 658 617 337 682 962 854 763 721 771 802 672 266
86 122 129 152 262 350 316 361 387 451 614 578 315 529 735 847 729 754 840 714 633 821
106 77 90 158 209 304 299 213 321 314 473 518 556 655 582 772 808 531 550 805 705 724
104 80 67 61 189 300 230 204 251 397 429 466 457 508 584 585 666 621 534 743 617 433
79 134 166 79 109 266 257 218 213 279 314 308 389 382 519 678 746 547 358 403 540 498
135 178 142 164 394 310 185 121 153 68 151 145 276 402 475 586 582 604 505 419 432 519
154 165 207 214 256 359 274 127 212 183 60 30 56 323 530 625 668 627 689 597 568 504
174 137 223 209 234 261 259 321 299 217 114 106 250 400 496 537 579 606 549 386 264 164
137 130 206 224 236 223 271 319 352 370 343 331 210 0 23 55 175 336 398 263 82 20
166 173 192 229 232 242 175 74 132 166 129 82 0 0 0 0 10 164 108 36 1 0
119 99 125 111 53 53 39 1 0 0 1 0 0 0 0 0 5 17 3 0 0 0
60 0 6 9 0 0 0 0 0 0 0 0 0 0 0 0 0 0 0 0 0 0
42 2 0 0 0 0 0 0 0 1 0 0 0 0 0 0 0 0 0 0 0 0
11 11 0 0 0 0 0 1 2 0 0 0 1 1 0 0 0 0 0 0 0 0